| time (UTC) | temp F | wind direction | speed MPH | gust MPH | rain 1hr in | rain 24hr in | rain mn in | humidity % | barometer mb |
| 20260507024506 | 43 | 277 | 0.0 | 2.0 | 0.00 | 0.20 | 0.00 | 85 | 1011.9 |
| 20260507023005 | 43 | 262 | 0.0 | 4.0 | 0.00 | 0.20 | 0.00 | 85 | 1011.9 |
| 20260507021504 | 43 | 256 | 0.0 | 6.0 | 0.00 | 0.20 | 0.00 | 86 | 1011.8 |
| 20260507020002 | 43 | 259 | 1.0 | 2.0 | 0.00 | 0.21 | 0.00 | 86 | 1011.6 |
| 20260507014608 | 43 | 5 | 0.0 | 0.0 | 0.00 | 0.21 | 0.00 | 84 | 1011.6 |
| 20260507013057 | 44 | 5 | 0.0 | 0.0 | 0.00 | 0.21 | 0.00 | 83 | 1011.4 |
| 20260507011554 | 44 | 5 | 0.0 | 2.0 | 0.00 | 0.21 | 0.00 | 81 | 1011.0 |
| 20260507010051 | 45 | 91 | 0.0 | 2.0 | 0.00 | 0.21 | 0.00 | 79 | 1010.9 |
| 20260507004547 | 47 | 281 | 0.0 | 2.0 | 0.00 | 0.22 | 0.00 | 77 | 1010.7 |
| 20260507003046 | 48 | 290 | 1.0 | 4.0 | 0.00 | 0.22 | 0.00 | 75 | 1010.7 |
| 20260507001547 | 49 | 243 | 0.0 | 3.0 | 0.00 | 0.22 | 0.00 | 73 | 1010.6 |
| 20260507000044 | 47 | 220 | 0.0 | 3.0 | 0.00 | 0.22 | 0.00 | 76 | 1010.7 |
| 20260506234550 | 47 | 124 | 0.0 | 3.0 | 0.00 | 0.23 | 0.00 | 77 | 1010.7 |
| 20260506233043 | 47 | 16 | 0.0 | 3.0 | 0.00 | 0.23 | 0.00 | 80 | 1010.7 |
| 20260506231550 | 47 | 251 | 0.0 | 1.0 | 0.00 | 0.23 | 0.00 | 79 | 1010.8 |
| 20260506230051 | 47 | 7 | 0.0 | 1.0 | 0.00 | 0.23 | 0.00 | 78 | 1010.9 |
| 20260506224539 | 48 | 90 | 0.0 | 2.0 | 0.00 | 0.23 | 0.00 | 77 | 1010.9 |
| 20260506223048 | 48 | 352 | 0.0 | 2.0 | 0.00 | 0.23 | 0.00 | 78 | 1010.7 |
| 20260506221532 | 49 | 252 | 0.0 | 1.0 | 0.00 | 0.23 | 0.00 | 74 | 1010.7 |
| 20260506220030 | 50 | 360 | 1.0 | 3.0 | 0.00 | 0.23 | 0.00 | 73 | 1010.6 |
| 20260506214526 | 51 | 27 | 0.0 | 2.0 | 0.00 | 0.23 | 0.23 | 71 | 1010.4 |
| 20260506213028 | 51 | 266 | 0.0 | 2.0 | 0.00 | 0.23 | 0.23 | 73 | 1010.4 |
| 20260506211532 | 51 | 276 | 0.0 | 2.0 | 0.00 | 0.23 | 0.23 | 72 | 1010.4 |
| 20260506210030 | 53 | 359 | 0.0 | 1.0 | 0.00 | 0.23 | 0.23 | 66 | 1010.4 |
| 20260506204524 | 54 | 4 | 0.0 | 2.0 | 0.00 | 0.23 | 0.23 | 62 | 1010.2 |
| 20260506203028 | 57 | 214 | 0.0 | 3.0 | 0.00 | 0.23 | 0.23 | 53 | 1009.8 |
| 20260506201532 | 59 | 253 | 3.0 | 9.0 | 0.00 | 0.23 | 0.23 | 45 | 1009.5 |
| 20260506200022 | 58 | 255 | 1.0 | 5.0 | 0.00 | 0.23 | 0.23 | 49 | 1009.1 |
| 20260506194527 | 59 | 231 | 2.0 | 6.0 | 0.00 | 0.23 | 0.23 | 46 | 1008.9 |
| 20260506193020 | 60 | 250 | 3.0 | 12.0 | 0.00 | 0.23 | 0.23 | 45 | 1008.4 |
| 20260506191519 | 60 | 225 | 4.0 | 12.0 | 0.00 | 0.23 | 0.23 | 45 | 1008.2 |
| 20260506190019 | 60 | 250 | 4.0 | 12.0 | 0.00 | 0.23 | 0.23 | 45 | 1008.2 |
| 20260506184518 | 61 | 288 | 1.0 | 14.0 | 0.00 | 0.23 | 0.23 | 45 | 1007.8 |
| 20260506183027 | 61 | 269 | 4.0 | 11.0 | 0.00 | 0.23 | 0.23 | 43 | 1007.6 |
| 20260506181516 | 61 | 252 | 4.0 | 8.0 | 0.00 | 0.23 | 0.23 | 45 | 1007.2 |
| 20260506180016 | 61 | 265 | 3.0 | 13.0 | 0.00 | 0.23 | 0.23 | 45 | 1006.9 |
| 20260506174515 | 62 | 270 | 3.0 | 15.0 | 0.00 | 0.23 | 0.23 | 43 | 1006.8 |
| 20260506173015 | 62 | 262 | 3.0 | 14.0 | 0.00 | 0.23 | 0.23 | 43 | 1006.7 |
| 20260506171520 | 62 | 224 | 2.0 | 22.0 | 0.00 | 0.23 | 0.23 | 43 | 1006.6 |
| 20260506170012 | 62 | 276 | 7.0 | 18.0 | 0.00 | 0.23 | 0.23 | 43 | 1006.3 |
| 20260506164512 | 64 | 233 | 2.0 | 19.0 | 0.00 | 0.24 | 0.23 | 44 | 1006.0 |
| 20260506163014 | 64 | 246 | 6.0 | 23.0 | 0.00 | 0.24 | 0.23 | 43 | 1006.0 |
| 20260506161510 | 66 | 245 | 11.0 | 22.0 | 0.00 | 0.24 | 0.23 | 42 | 1005.5 |
| 20260506160010 | 68 | 86 | 2.0 | 8.0 | 0.00 | 0.24 | 0.23 | 51 | 1005.4 |
| 20260506154508 | 69 | 224 | 2.0 | 6.0 | 0.00 | 0.24 | 0.23 | 40 | 1005.4 |
| 20260506153010 | 67 | 97 | 3.0 | 7.0 | 0.00 | 0.24 | 0.23 | 48 | 1005.4 |
| 20260506151506 | 70 | 103 | 2.0 | 6.0 | 0.00 | 0.24 | 0.23 | 39 | 1005.4 |
| 20260506150004 | 68 | 245 | 2.0 | 6.0 | 0.00 | 0.24 | 0.23 | 42 | 1005.6 |
| 20260506144501 | 67 | 261 | 3.0 | 7.0 | 0.00 | 0.24 | 0.23 | 41 | 1005.5 |
| 20260506143109 | 65 | 262 | 7.0 | 17.0 | 0.00 | 0.24 | 0.23 | 45 | 1005.7 |
| 20260506141559 | 65 | 287 | 8.0 | 20.0 | 0.00 | 0.24 | 0.23 | 43 | 1006.3 |
| 20260506140104 | 64 | 240 | 8.0 | 15.0 | 0.00 | 0.24 | 0.23 | 44 | 1006.3 |
| 20260506134559 | 67 | 252 | 3.0 | 14.0 | 0.00 | 0.24 | 0.23 | 45 | 1005.9 |
| 20260506133058 | 68 | 269 | 5.0 | 13.0 | 0.00 | 0.24 | 0.23 | 46 | 1005.8 |
| 20260506131556 | 68 | 240 | 2.0 | 6.0 | 0.00 | 0.24 | 0.23 | 51 | 1006.0 |
| 20260506130100 | 68 | 274 | 2.0 | 7.0 | 0.00 | 0.24 | 0.23 | 51 | 1006.3 |
| 20260506124552 | 66 | 143 | 3.0 | 10.0 | 0.00 | 0.24 | 0.23 | 63 | 1006.1 |
| 20260506123051 | 64 | 266 | 4.0 | 19.0 | 0.00 | 0.24 | 0.23 | 47 | 1006.3 |
| 20260506121553 | 62 | 259 | 5.0 | 17.0 | 0.00 | 0.24 | 0.23 | 52 | 1006.0 |
| 20260506120049 | 64 | 295 | 10.0 | 17.0 | 0.00 | 0.24 | 0.23 | 47 | 1006.1 |
| 20260506114550 | 65 | 112 | 5.0 | 11.0 | 0.00 | 0.24 | 0.23 | 65 | 1005.7 |
| 20260506113047 | 64 | 102 | 4.0 | 10.0 | 0.00 | 0.24 | 0.23 | 65 | 1005.5 |
| 20260506111545 | 64 | 120 | 5.0 | 9.0 | 0.00 | 0.24 | 0.23 | 66 | 1005.5 |
| 20260506110043 | 64 | 86 | 7.0 | 12.0 | 0.00 | 0.24 | 0.23 | 66 | 1005.8 |
| 20260506104541 | 65 | 20 | 0.0 | 4.0 | 0.00 | 0.24 | 0.23 | 66 | 1006.1 |
| 20260506103046 | 63 | 262 | 2.0 | 6.0 | 0.00 | 0.24 | 0.23 | 65 | 1006.4 |
| 20260506101532 | 63 | 116 | 0.0 | 7.0 | 0.00 | 0.24 | 0.23 | 71 | 1006.6 |
| 20260506100030 | 61 | 200 | 3.0 | 9.0 | 0.00 | 0.24 | 0.23 | 72 | 1006.9 |
| 20260506094528 | 61 | 85 | 2.0 | 5.0 | 0.00 | 0.24 | 0.23 | 72 | 1007.1 |
| 20260506093024 | 60 | 114 | 2.0 | 5.0 | 0.00 | 0.24 | 0.23 | 74 | 1007.4 |
| 20260506091522 | 59 | 113 | 3.0 | 5.0 | 0.00 | 0.24 | 0.23 | 74 | 1007.5 |
| 20260506090026 | 59 | 101 | 0.0 | 3.0 | 0.00 | 0.24 | 0.23 | 81 | 1007.6 |
| 20260506084514 | 56 | 258 | 0.0 | 2.0 | 0.00 | 0.24 | 0.23 | 87 | 1007.7 |
| 20260506083013 | 55 | 9 | 0.0 | 1.0 | 0.02 | 0.24 | 0.23 | 93 | 1007.8 |
| 20260506081508 | 53 | 270 | 0.0 | 1.0 | 0.02 | 0.24 | 0.23 | 94 | 1008.0 |
| 20260506073004 | 52 | 256 | 0.0 | 1.0 | 0.00 | 0.23 | 0.21 | 94 | 1008.0 |
| 20260506071504 | 52 | 257 | 0.0 | 1.0 | 0.00 | 0.23 | 0.21 | 93 | 1008.0 |
| 20260506061602 | 51 | 132 | 1.0 | 5.0 | 0.03 | 0.24 | 0.21 | 95 | 1008.1 |
| 20260506050108 | 51 | 116 | 2.0 | 9.0 | 0.11 | 0.17 | 0.15 | 94 | 1008.0 |
| 20260506044553 | 51 | 110 | 3.0 | 6.0 | 0.08 | 0.20 | 0.11 | 94 | 1008.0 |
| 20260506043059 | 51 | 142 | 2.0 | 8.0 | 0.06 | 0.17 | 0.09 | 94 | 1007.9 |
| 20260506041551 | 51 | 132 | 2.0 | 6.0 | 0.02 | 0.14 | 0.06 | 94 | 1008.0 |
| 20260506040051 | 51 | 120 | 2.0 | 9.0 | 0.02 | 0.13 | 0.04 | 95 | 1008.2 |
| 20260506034549 | 51 | 143 | 0.0 | 6.0 | 0.01 | 0.20 | 0.03 | 94 | 1008.1 |
| 20260506033048 | 51 | 112 | 1.0 | 5.0 | 0.01 | 0.20 | 0.03 | 94 | 1008.4 |
| 20260506031643 | 51 | 90 | 2.0 | 7.0 | 0.01 | 0.20 | 0.03 | 94 | 1008.5 |
| 20260506030042 | 51 | 141 | 1.0 | 6.0 | 0.00 | 0.19 | 0.02 | 94 | 1008.8 |